Brisbane, Queensland

5:10 AM AEST on October 02, 2016 (GMT +1000)
Brisbane International

Weather History for YBBN - April, 2013

Change the Weather History Date:

Saturday, April 27, 2013

  Actual Average Record
Temperature  
Mean Temperature 68 °F -  
Max Temperature 77 °F 75 °F 82 °F (2014)
Min Temperature 59 °F 58 °F 50 °F (2015)
Cooling Degree Days 3    
Growing Degree Days 18 (Base 50)    
Moisture  
Dew Point 58 °F    
Average Humidity 72    
Maximum Humidity 94    
Minimum Humidity 36    
Precipitation  
Precipitation 0.00 in - - ()
Sea Level Pressure  
Sea Level Pressure 30.16 in    
Wind  
Wind Speed 6 mph ()    
Max Wind Speed 9 mph    
Max Gust Speed -    
Visibility 9.2 miles    
Events      
Averages and records for this station are not official NWS values.
T = Trace of Precipitation, MM = Missing Value Source: Averaged Metar Reports

Daily Weather History Graph

Daily Weather History Graph

Search for Another Location

Airport or City:

Trip Planner

Search our weather history database for the weather conditions in past years. The results will help you decide how hot, cold, wet, or windy it might be!

Date:

Astronomy

Apr. 27, 2013 Rise Set
Actual Time 6:10 AM AEST 5:19 PM AEST
Civil Twilight 5:46 AM AEST 5:43 PM AEST
Nautical Twilight 5:18 AM AEST 6:11 PM AEST
Astronomical Twilight 4:51 AM AEST 6:38 PM AEST
Moon 6:30 PM AEST (4/27) 7:20 AM AEST (4/27)
Length of Visible Light 11h 56m
Length of Day
11h 09m
Full, 98% of the Moon is Illuminated
Apr 27
Full
May 2
Last Quarter
May 10
New
May 18
First Quarter
May 25
Full

Hourly Weather History & Observations

Time (AEST) Temp. Dew Point Humidity Pressure Visibility Wind Dir Wind Speed Gust Speed Precip Events Conditions
12:00 AM 66 °F 60 °F 76% 30.19 in 19 mi South 3.5 mph - -   Partly Cloudy
12:00 AM 66.2 °F 60.8 °F 83% 30.18 in - South 3.5 mph - N/A   Clear
12:30 AM 66.2 °F 60.8 °F 83% 30.15 in - South 5.8 mph - N/A   Clear
1:00 AM 63 °F 59 °F 84% 30.17 in - SSW 5.8 mph - -  
1:00 AM 62.6 °F 59.0 °F 88% 30.15 in - SSW 5.8 mph - N/A   Clear
1:30 AM 64.4 °F 59.0 °F 83% 30.15 in - SSW 6.9 mph - N/A   Clear
2:00 AM 62.6 °F 59.0 °F 88% 30.15 in - SSW 6.9 mph - N/A   Clear
2:30 AM 62.6 °F 59.0 °F 88% 30.15 in - SSW 6.9 mph - N/A   Clear
3:00 AM 63 °F 60 °F 85% 30.16 in 19 mi SSW 6.9 mph - -   Partly Cloudy
3:00 AM 62.6 °F 59.0 °F 88% 30.15 in - SSW 6.9 mph - N/A   Clear
3:30 AM 62.6 °F 59.0 °F 88% 30.15 in - SSW 8.1 mph - N/A   Clear
4:00 AM 62 °F 59 °F 86% 30.16 in - SSW 6.9 mph - -  
4:00 AM 62.6 °F 59.0 °F 88% 30.15 in - SSW 6.9 mph - N/A   Clear
4:30 AM 60.8 °F 59.0 °F 94% 30.15 in - SSW 6.9 mph - N/A   Clear
5:00 AM 60.8 °F 57.2 °F 88% 30.15 in - SSW 6.9 mph - N/A   Clear
5:30 AM 60.8 °F 57.2 °F 88% 30.15 in 6.2 mi SSW 8.1 mph - N/A   Scattered Clouds
6:00 AM 60 °F 57 °F 87% 30.18 in 19 mi SSW 9.2 mph - -   Partly Cloudy
6:00 AM 59.0 °F 57.2 °F 94% 30.15 in 6.2 mi SSW 9.2 mph - N/A   Scattered Clouds
6:30 AM 60.8 °F 57.2 °F 88% 30.18 in 6.2 mi SSW 8.1 mph - N/A   Scattered Clouds
7:00 AM 60 °F 58 °F 89% 30.20 in - SSW 9.2 mph - -  
7:00 AM 60.8 °F 57.2 °F 88% 30.18 in 6.2 mi SSW 9.2 mph - N/A   Partly Cloudy
7:30 AM 62.6 °F 59.0 °F 88% 30.18 in 6.2 mi SSW 8.1 mph - N/A   Scattered Clouds
8:00 AM 66.2 °F 59.0 °F 78% 30.18 in 6.2 mi SSW 8.1 mph - N/A   Partly Cloudy
8:30 AM 68.0 °F 60.8 °F 78% 30.18 in 6.2 mi SSW 8.1 mph - N/A   Partly Cloudy
9:00 AM 71 °F 61 °F 62% 30.22 in 19 mi South 6.9 mph - -   Partly Cloudy
9:00 AM 71.6 °F 60.8 °F 69% 30.21 in 6.2 mi South 6.9 mph - N/A   Scattered Clouds
9:30 AM 69.8 °F 60.8 °F 73% 30.21 in 6.2 mi SSW 6.9 mph - N/A   Scattered Clouds
10:00 AM 75 °F 61 °F 52% 30.21 in - SSW 6.9 mph - -  
10:00 AM 75.2 °F 60.8 °F 61% 30.18 in 6.2 mi SSW 6.9 mph - N/A   Scattered Clouds
10:30 AM 75.2 °F 59.0 °F 57% 30.18 in 6.2 mi SE 8.1 mph - N/A   Scattered Clouds
11:00 AM 73.4 °F 57.2 °F 57% 30.18 in 6.2 mi ESE 6.9 mph - N/A   Scattered Clouds
11:30 AM 75.2 °F 55.4 °F 50% 30.18 in 6.2 mi ESE 8.1 mph - N/A   Mostly Cloudy
12:00 PM 74 °F 57 °F 45% 30.17 in 19 mi SE 8.1 mph - -   Scattered Clouds
12:00 PM 73.4 °F 57.2 °F 57% 30.15 in 6.2 mi SE 8.1 mph - N/A   Scattered Clouds
12:30 PM 75.2 °F 59.0 °F 57% 30.15 in 6.2 mi SE 8.1 mph - N/A   Mostly Cloudy
1:00 PM 76 °F 57 °F 41% 30.14 in - SE 8.1 mph - -  
1:00 PM 75.2 °F 57.2 °F 53% 30.12 in 6.2 mi SE 8.1 mph - N/A   Mostly Cloudy
1:30 PM 75.2 °F 57.2 °F 53% 30.12 in 6.2 mi ESE 8.1 mph - N/A   Mostly Cloudy
2:00 PM 75.2 °F 55.4 °F 50% 30.12 in 6.2 mi East 6.9 mph - N/A   Mostly Cloudy
2:30 PM 77.0 °F 55.4 °F 47% 30.12 in 6.2 mi ESE 6.9 mph - N/A   Mostly Cloudy
3:00 PM 76 °F 54 °F 36% 30.12 in 19 mi ESE 8.1 mph - -   Partly Cloudy
3:00 PM 75.2 °F 53.6 °F 47% 30.09 in 6.2 mi ESE 8.1 mph - N/A   Mostly Cloudy
3:30 PM 75.2 °F 55.4 °F 50% 30.09 in 6.2 mi East 8.1 mph - N/A   Scattered Clouds
4:00 PM 73.4 °F 57.2 °F 57% 30.09 in 6.2 mi ESE 8.1 mph - N/A   Scattered Clouds
4:30 PM 73.4 °F 55.4 °F 53% 30.12 in 6.2 mi ESE 5.8 mph - N/A   Partly Cloudy
5:00 PM 71.6 °F 57.2 °F 60% 30.12 in - East 6.9 mph - N/A   Clear
5:30 PM 69.8 °F 57.2 °F 64% 30.12 in - East 5.8 mph - N/A   Clear
6:00 PM 69.8 °F 57.2 °F 64% 30.12 in - East 4.6 mph - N/A   Clear
6:30 PM 69.8 °F 59.0 °F 68% 30.15 in - East 4.6 mph - N/A   Clear
7:00 PM 68 °F 59 °F 65% 30.16 in - East 4.6 mph - -  
7:00 PM 68.0 °F 59.0 °F 73% 30.15 in - East 4.6 mph - N/A   Clear
7:30 PM 68.0 °F 59.0 °F 73% 30.15 in - ESE 4.6 mph - N/A   Clear
8:00 PM 66.2 °F 59.0 °F 78% 30.15 in - SE 4.6 mph - N/A   Clear
8:30 PM 66.2 °F 59.0 °F 78% 30.15 in - South 4.6 mph - N/A   Clear
9:00 PM 65 °F 58 °F 73% 30.18 in 19 mi South 3.5 mph - -   Partly Cloudy
9:00 PM 64.4 °F 59.0 °F 83% 30.15 in - South 3.5 mph - N/A   Clear
9:30 PM 62.6 °F 57.2 °F 82% 30.15 in - SSW 5.8 mph - N/A   Clear
10:00 PM 62 °F 58 °F 81% 30.17 in - SSW 5.8 mph - -  
10:00 PM 60.8 °F 57.2 °F 88% 30.15 in - SSW 5.8 mph - N/A   Clear
10:30 PM 62.6 °F 57.2 °F 82% 30.15 in - SSW 5.8 mph - N/A   Clear
11:00 PM 62.6 °F 57.2 °F 82% 30.15 in - SSW 6.9 mph - N/A   Clear
11:30 PM 62.6 °F 57.2 °F 82% 30.15 in - SSW 6.9 mph - N/A   Clear